Disclaimer

Please do not use the information listed here in-flight or in-navigation, as they are not provided to us by the airports but are provided by volunteers, so they might be outdated.

Search


Regions


Airport information page

Radio informations:
AWOS - 126.25 MHz

Airport informations:
Latitude: 50° 11' 24.00" N
Longitude: 061° 47' 21.00" W
Elevation: 39 feet - 12 meters
Operating hours: N/A
Operating agency: Municipal
Timezone: Second Sunday in March at 0200 to first Sunday in November at 0200 local time (Exception Arizona and that portion of Indiana in the Eastern Time Zone)
Fuel: Jet B, Wide cut turbine fuel, Without icing inhibitor.

100/130 MIL Spec, low lead, aviation gasoline (BLUE)

Runway information:
14/32 - 4494 x 100 feet< - >1370 x 30 meters

Recent METARs:
CYNA 200400Z AUTO 32005KT 9SM CLR M30/M35 A3045 RMK SLP313
CYNA 200500Z AUTO 32004KT 9SM CLR M31/M36 A3046 RMK SLP318
CYNA 200500Z AUTO 32004KT 9SM CLR M31/M36 A3046 RMK SLP318

Airport on the map: